STARLINK-4524 (53396 NORAD) Tracking and Keplerian Element Data

This shows tracking and keplerian element data for the satellite.

Feedback or suggestion? Click here.




ElementValue
Catalog53396
NameSTARLINK-4524
Epoch Orbit130
Epoch Day269.91667824
Epoch Year2022
RAAN19.4519
Inclination53.2186
Eccentricity0.0002053
Argument of Perigee35.0327
Mean Anonmoly236.6778
Mean Motion15.08834128
Decay Rate0.00027937
L11 53396U 22097J 22269.91667824 .00027937 00000+0 17667-2 0 9996
L22 53396 53.2186 19.4519 0002053 35.0327 236.6778 15.08834128 1305

Live tracking and technical data element details for STARLINK-4524 (NORAD 53396). STARLINK-4524 can be tracked NOW for your location showing map with azimuth and elevation plus other details from your city location.

Track the satellite on the map from your city or location and see movement details for azimuth, elevation, latitude, longitude, range, height, and movement on the map or in text.







IsCatalogInMostPopularTable: catalog: 53396, numindb: 3
Update: records affected: 1



GetName: 53396 STARLINK-4524

Hit Count: updated at: Wed, 05 Oct 2022 08:20:20 GMT